Location: Columbia
(38.9520°N, 92.3340°W)
Time: 11:41:28
(UTC-05:00)

Iridium 52 - Visible Passes

Search period start: 02 September 2014 00:00
Search period end: 12 September 2014 00:00
Orbit: 776 x 779 km, 86.4° (Epoch: 02 September)

Date Brightness Start Highest point End Pass type
(mag) Time Alt. Az. Time Alt. Az. Time Alt. Az.
02 Sep 7.4 05:42:38 10° SSE 05:47:31 43° E 05:52:26 10° NNE visible
03 Sep 8.5 05:10:09 10° SE 05:14:12 24° E 05:18:17 10° NNE visible
04 Sep 9.1 04:38:53 10° ESE 04:41:01 13° ENE 04:43:09 10° NE visible
05 Sep 6.5 05:42:25 10° S 05:47:32 64° E 05:52:42 10° N visible
06 Sep 7.8 05:09:31 10° SSE 05:14:09 34° E 05:18:49 10° NNE visible
07 Sep 8.7 04:37:23 10° ESE 04:40:54 19° E 04:44:24 10° NE visible
07 Sep 6.3 06:16:12 10° SSW 06:21:11 46° W 06:26:12 10° N visible
08 Sep 6.0 05:42:24 10° S 05:47:36 87° W 05:52:51 10° N visible
09 Sep 6.9 05:09:10 10° SSE 05:14:09 50° E 05:19:10 10° NNE visible
10 Sep 8.1 04:36:32 10° SE 04:40:49 27° E 04:45:07 10° NNE visible
10 Sep 6.8 06:16:46 10° SW 06:21:22 32° W 06:26:00 10° NNW visible
11 Sep 8.8 04:04:53 10° ESE 04:07:36 14° ENE 04:10:19 10° NE visible
11 Sep 6.0 05:42:36 10° SSW 05:47:43 60° W 05:52:52 10° N visible
